STARLINK-35656

Last updated on Wed Dec 10 2025 00:02:05 GMT+0000 (Coordinated Universal Time)

1 66391U 25257M 25343.11707927 .00082580 00000+0 20518-2 0 9997 2 66391 53.1595 281.4538 0001147 91.2559 268.8577 15.39625568 5918
UTC large
Height (km)
Speed (km/s)
/
Latitude / Longitude
Inclination (degrees)
Orbital Period (minutes)
Azimuth
Elevation
Range (km)
Doppler Factor

Next 0 passes for location: London (51.5072 / 0.1276)

Sorry there are no passes over London.